Location: Parkway Village
(35.0643°N, 89.9062°W)
Time: 13:58:17
(UTC+00:00)

BlueWalker 3 - Pass Details

Date: 22 August 2024
Orbit: 475 x 487 km, 53.2° (Epoch: 17 September)

Event Time Altitude Azimuth Distance (km) Brightness Sun altitude
Rises 02:57:38 0° 236° (SW) 2,525 5.7 -26.0°
Reaches altitude 10° 02:59:49 10° 241° (WSW) 1,652 4.8 -26.4°
Enters shadow 03:00:44 17° 246° (WSW) 1,301 4.3 -26.5°
